Weather History for Lome, Togo

Change the Weather History Date:

Thursday, February 14, 2013

  Actual Average Record
Temperature  
Mean Temperature 86 °F -  
Max Temperature 93 °F 90 °F - ()
Min Temperature 79 °F 75 °F - ()
Cooling Degree Days 21    
Growing Degree Days 36 (Base 50)    
Moisture  
Dew Point 78 °F    
Average Humidity 80    
Maximum Humidity 94    
Minimum Humidity 52    
Precipitation  
Precipitation 0.00 in 0.05 in - ()
Sea Level Pressure  
Sea Level Pressure 29.79 in    
Wind  
Wind Speed 7 mph ()    
Max Wind Speed 16 mph    
Max Gust Speed -    
Visibility 6.2 miles    
Events      
T = Trace of Precipitation, MM = Missing Value Source: Averaged Metar Reports

Daily Weather History Graph

Daily Weather History Graph

Search for Another Location

Airport:

Trip Planner

Search our weather history database for the weather conditions in past years. The results will help you decide how hot, cold, wet, or windy it might be!

Date:

Astronomy

Feb. 14, 2013 Rise Set
Actual Time 6:11 AM GMT 6:06 PM GMT
Civil Twilight 5:50 AM GMT 6:28 PM GMT
Nautical Twilight 5:25 AM GMT 6:52 PM GMT
Astronomical Twilight 5:00 AM GMT 7:17 PM GMT
Moon 9:10 AM GMT (2/14) 9:42 PM GMT (2/14)
Length of Visible Light 12h 38m
Length of Day
11h 55m
Waxing Crescent, 19% of the Moon is Illuminated
Feb 14
Waxing Crescent
Feb 17
First Quarter
Feb 25
Full
Mar 4
Last Quarter
Mar 11
New

Hourly Weather History & Observations

Time (GMT) Temp. Heat Index Dew Point Humidity Pressure Visibility Wind Dir Wind Speed Gust Speed Precip Events Conditions
12:00 AM 83 °F - 78 °F 82% 29.77 in 6 mi WSW 4.6 mph - -   Scattered Clouds
12:00 AM 82.4 °F 92.4 °F 78.8 °F 89% 29.80 in 6.2 mi SSW 8.1 mph - N/A   Partly Cloudy
12:30 AM 82.4 °F 92.4 °F 78.8 °F 89% 29.80 in 6.2 mi SSW 9.2 mph - N/A   Partly Cloudy
1:00 AM 82.4 °F 92.4 °F 78.8 °F 89% 29.77 in 6.2 mi SW 6.9 mph - N/A   Scattered Clouds
1:30 AM 82.4 °F 92.4 °F 78.8 °F 89% 29.77 in 6.2 mi SW 6.9 mph - N/A   Scattered Clouds
2:00 AM 82.4 °F 92.4 °F 78.8 °F 89% 29.77 in 6.2 mi SW 8.1 mph - N/A   Partly Cloudy
2:30 AM 82.4 °F 92.4 °F 78.8 °F 89% 29.77 in 6.2 mi SW 5.8 mph - N/A   Partly Cloudy
3:00 AM 82.4 °F 92.4 °F 78.8 °F 89% 29.77 in 6.2 mi Variable 2.3 mph - N/A   Scattered Clouds
3:30 AM 80.6 °F 88.1 °F 78.8 °F 94% 29.77 in 6.2 mi Variable 3.5 mph - N/A   Scattered Clouds
4:00 AM 80.6 °F 88.1 °F 78.8 °F 94% 29.77 in 6.2 mi Variable 3.5 mph - N/A   Scattered Clouds
4:30 AM 80.6 °F 88.1 °F 78.8 °F 94% 29.77 in 6.2 mi Variable 3.5 mph - N/A   Scattered Clouds
5:00 AM 80.6 °F 88.1 °F 78.8 °F 94% 29.77 in 5.0 mi WSW 4.6 mph - N/A   Partly Cloudy
5:30 AM 80.6 °F 88.1 °F 78.8 °F 94% 29.77 in 5.0 mi Variable 2.3 mph - N/A   Scattered Clouds
6:00 AM 80 °F - 78 °F 93% 29.75 in 6 mi West 2.3 mph - -   Partly Cloudy
6:00 AM 80.6 °F 88.1 °F 78.8 °F 94% 29.77 in 5.0 mi Variable 3.5 mph - N/A   Partly Cloudy
6:30 AM 80.6 °F 88.1 °F 78.8 °F 94% 29.80 in 3.7 mi Variable 3.5 mph - N/A   Partly Cloudy
7:00 AM 80.6 °F 88.1 °F 78.8 °F 94% 29.80 in 3.7 mi Variable 3.5 mph - N/A   Partly Cloudy
7:30 AM 82.4 °F 92.4 °F 78.8 °F 89% 29.83 in 5.0 mi Variable 3.5 mph - N/A   Partly Cloudy
8:00 AM 82.4 °F 90.9 °F 77.0 °F 84% 29.86 in 6.2 mi West 4.6 mph - N/A   Mostly Cloudy
8:09 AM 82.4 °F 90.9 °F 77.0 °F 84% 29.86 in 6.2 mi WNW 4.6 mph - N/A   Mostly Cloudy
8:30 AM 84.2 °F 94.1 °F 77.0 °F 79% 29.86 in 6.2 mi West 4.6 mph - N/A   Mostly Cloudy
8:40 AM 84.2 °F 94.1 °F 77.0 °F 79% 29.86 in 6.2 mi West 5.8 mph - N/A   Scattered Clouds
9:00 AM 86.0 °F 96.9 °F 77.0 °F 74% 29.86 in 6.2 mi WSW 6.9 mph - N/A   Partly Cloudy
9:30 AM 87.8 °F 97.6 °F 75.2 °F 66% 29.86 in 6.2 mi WSW 8.1 mph - N/A   Partly Cloudy
10:00 AM 89.6 °F 99.8 °F 75.2 °F 62% 29.86 in 6.2 mi WSW 8.1 mph - N/A   Partly Cloudy
10:30 AM 89.6 °F 99.8 °F 75.2 °F 62% 29.83 in 6.2 mi SSW 12.7 mph - N/A   Partly Cloudy
11:00 AM 89.6 °F 98.2 °F 73.4 °F 59% 29.83 in 6.2 mi South 13.8 mph - N/A   Partly Cloudy
11:30 AM 91.4 °F 100.1 °F 73.4 °F 55% 29.83 in 6.2 mi SSW 12.7 mph - N/A   Partly Cloudy
12:00 PM 90 °F - 75 °F 52% 29.78 in 12 mi SW 9.2 mph - -   Scattered Clouds
12:00 PM 91.4 °F 100.1 °F 73.4 °F 55% 29.80 in 6.2 mi SSW 12.7 mph - N/A   Partly Cloudy
12:30 PM 89.6 °F 99.8 °F 75.2 °F 62% 29.80 in 6.2 mi South 13.8 mph - N/A   Partly Cloudy
1:00 PM 91.4 °F 102.5 °F 75.2 °F 59% 29.77 in 6.2 mi South 12.7 mph - N/A   Partly Cloudy
1:30 PM 91.4 °F 102.5 °F 75.2 °F 59% 29.77 in 6.2 mi South 15.0 mph - N/A   Partly Cloudy
2:00 PM 91.4 °F 102.5 °F 75.2 °F 59% 29.74 in 6.2 mi South 15.0 mph - N/A   Partly Cloudy
2:30 PM 89.6 °F 102.2 °F 77.0 °F 66% 29.74 in 6.2 mi South 16.1 mph - N/A   Partly Cloudy
3:00 PM 89.6 °F 102.2 °F 77.0 °F 66% 29.74 in 6.2 mi SSW 16.1 mph - N/A   Partly Cloudy
3:30 PM 87.8 °F 99.7 °F 77.0 °F 70% 29.74 in 6.2 mi SSW 16.1 mph - N/A   Partly Cloudy
4:00 PM 87.8 °F 99.7 °F 77.0 °F 70% 29.74 in 6.2 mi SSW 16.1 mph - N/A   Partly Cloudy
4:30 PM 86.0 °F 99.3 °F 78.8 °F 79% 29.74 in 6.2 mi SSW 16.1 mph - N/A   Partly Cloudy
5:00 PM 86.0 °F 96.9 °F 77.0 °F 74% 29.74 in 6.2 mi SSW 13.8 mph - N/A   Partly Cloudy
5:30 PM 86.0 °F 99.3 °F 78.8 °F 79% 29.74 in 6.2 mi SSW 15.0 mph - N/A   Partly Cloudy
6:00 PM 85 °F - 79 °F 77% 29.70 in 9 mi SW 9.2 mph - -   Scattered Clouds
6:00 PM 84.2 °F 96.1 °F 78.8 °F 84% 29.74 in 6.2 mi SSW 13.8 mph - N/A   Partly Cloudy
6:30 PM 84.2 °F 96.1 °F 78.8 °F 84% 29.74 in 6.2 mi SSW 12.7 mph - N/A   Partly Cloudy
7:00 PM 84.2 °F 96.1 °F 78.8 °F 84% 29.77 in 6.2 mi SSW 11.5 mph - N/A   Partly Cloudy
7:30 PM 84.2 °F 96.1 °F 78.8 °F 84% 29.77 in 6.2 mi SSW 11.5 mph - N/A   Partly Cloudy
8:00 PM 84.2 °F 96.1 °F 78.8 °F 84% 29.80 in 6.2 mi SSW 11.5 mph - N/A   Partly Cloudy
8:30 PM 84.2 °F 96.1 °F 78.8 °F 84% 29.80 in 6.2 mi SW 10.4 mph - N/A   Scattered Clouds
9:00 PM 82.4 °F 92.4 °F 78.8 °F 89% 29.80 in 6.2 mi SW 9.2 mph - N/A   Scattered Clouds
9:30 PM 82.4 °F 92.4 °F 78.8 °F 89% 29.83 in 6.2 mi SSW 9.2 mph - N/A   Partly Cloudy
10:00 PM 82.4 °F 92.4 °F 78.8 °F 89% 29.83 in 6.2 mi SW 8.1 mph - N/A   Partly Cloudy
10:30 PM 82.4 °F 92.4 °F 78.8 °F 89% 29.83 in 6.2 mi SW 8.1 mph - N/A   Partly Cloudy
11:00 PM 82.4 °F 92.4 °F 78.8 °F 89% 29.83 in 6.2 mi SW 9.2 mph - N/A   Partly Cloudy
11:30 PM 82.4 °F 92.4 °F 78.8 °F 89% 29.83 in 6.2 mi SW 8.1 mph - N/A   Partly Cloudy